FW4655 Weather Reports


Display with metric or nautical units.
time (UTC)temp
F
wind
direction
speed
MPH
gust
MPH
rain 1hr
in
rain 24hr
in
rain mn
in
humidity
%
barometer
mb
20260902090006 61 300 1.0 4.0 0.00 0.00 0.00 75 1012.0
20260902085509 61 146 0.0 5.0 0.00 0.00 0.00 75 1012.1
20260902085007 61 165 0.0 7.0 0.00 0.00 0.00 75 1012.1
20260902084513 61 229 2.0 7.0 0.00 0.00 0.00 75 1012.1
20260902084011 61 225 1.0 6.0 0.00 0.00 0.00 75 1012.2
20260902083508 61 259 1.0 8.0 0.00 0.00 0.00 75 1012.1
20260902083017 61 282 1.0 8.0 0.00 0.00 0.00 75 1012.1
20260902082512 61 327 0.0 4.0 0.00 0.00 0.00 75 1012.1
20260902082010 61 291 2.0 4.0 0.00 0.00 0.00 75 1012.1
20260902081519 61 285 0.0 2.0 0.00 0.00 0.00 75 1012.0
20260902081011 61 295 1.0 4.0 0.00 0.00 0.00 75 1012.0
20260902080510 62 297 1.0 4.0 0.00 0.00 0.00 75 1011.9
20260902080022 62 290 0.0 4.0 0.00 0.00 0.00 74 1012.0
20260902075511 62 280 1.0 5.0 0.00 0.00 0.00 74 1012.0
20260902075011 62 245 1.0 5.0 0.00 0.00 0.00 74 1012.0
20260902074519 62 307 2.0 5.0 0.00 0.00 0.00 73 1012.1
20260902074007 62 302 0.0 5.0 0.00 0.00 0.00 73 1012.1
20260902073508 62 253 1.0 5.0 0.00 0.00 0.00 73 1012.2
20260902073013 62 233 2.0 6.0 0.00 0.00 0.00 73 1012.2
20260902072508 63 294 1.0 6.0 0.00 0.00 0.00 72 1012.2
20260902072009 63 302 2.0 5.0 0.00 0.00 0.00 72 1012.3
20260902071530 63 317 2.0 5.0 0.00 0.00 0.00 72 1012.4
20260902071014 63 285 1.0 3.0 0.00 0.00 0.00 72 1012.4
20260902070514 63 216 1.0 7.0 0.00 0.00 0.00 72 1012.4
20260902070024 63 254 2.0 8.0 0.00 0.00 0.00 72 1012.5
20260902065513 62 280 3.0 8.0 0.00 0.00 0.00 72 1012.5
20260902065013 62 269 2.0 5.0 0.00 0.00 0.00 72 1012.5
20260902064522 62 229 1.0 5.0 0.00 0.00 0.00 72 1012.6
20260902064015 62 247 2.0 6.0 0.00 0.00 0.00 72 1012.6
20260902063514 62 314 2.0 6.0 0.00 0.00 0.00 72 1012.6
20260902063028 62 291 2.0 4.0 0.00 0.00 0.00 71 1012.5
20260902062512 63 295 1.0 7.0 0.00 0.00 0.00 71 1012.5
20260902062008 63 288 1.0 7.0 0.00 0.00 0.00 71 1012.4
20260902061515 63 265 3.0 7.0 0.00 0.00 0.00 70 1012.4
20260902061022 63 150 2.0 5.0 0.00 0.00 0.00 70 1012.3
20260902060511 63 251 0.0 4.0 0.00 0.00 0.00 70 1012.4
20260902060019 63 254 0.0 7.0 0.00 0.00 0.00 70 1012.5
20260902055514 63 291 2.0 7.0 0.00 0.00 0.00 70 1012.5
20260902055014 63 153 1.0 4.0 0.00 0.00 0.00 69 1012.5
20260902054527 64 294 1.0 4.0 0.00 0.00 0.00 69 1012.6
20260902054015 64 299 1.0 5.0 0.00 0.00 0.00 69 1012.7
20260902053513 64 260 0.0 5.0 0.00 0.00 0.00 69 1012.8
20260902053027 64 287 3.0 5.0 0.00 0.00 0.00 69 1012.7
20260902052513 64 306 1.0 6.0 0.00 0.00 0.00 69 1012.8
20260902052012 64 307 2.0 7.0 0.00 0.00 0.00 69 1012.8
20260902051528 64 330 2.0 7.0 0.00 0.00 0.00 69 1012.8
20260902051018 64 304 2.0 6.0 0.00 0.00 0.00 69 1012.7
20260902050516 64 300 2.0 5.0 0.00 0.00 0.00 69 1012.7
20260902050022 64 284 2.0 5.0 0.00 0.00 0.00 69 1012.7
20260902045512 64 309 1.0 5.0 0.00 0.00 0.00 69 1012.6
20260902045012 64 288 0.0 7.0 0.00 0.00 0.00 69 1012.7
20260902044537 64 299 3.0 8.0 0.00 0.00 0.00 69 1012.7
20260902044015 64 309 4.0 8.0 0.00 0.00 0.00 69 1012.7
20260902043516 64 276 2.0 8.0 0.00 0.00 0.00 69 1012.7
20260902043029 64 274 3.0 8.0 0.00 0.00 0.00 69 1012.6
20260902042516 64 298 3.0 6.0 0.00 0.00 0.00 69 1012.6
20260902042014 64 298 3.0 6.0 0.00 0.00 0.00 68 1012.5
20260902041530 64 318 2.0 6.0 0.00 0.00 0.00 68 1012.5
20260902041018 64 275 2.0 5.0 0.00 0.00 0.00 68 1012.6
20260902040514 64 271 2.0 5.0 0.00 0.00 0.00 68 1012.6
20260902040031 64 291 2.0 5.0 0.00 0.00 0.00 68 1012.6
20260902035516 65 36 1.0 5.0 0.00 0.00 0.00 68 1012.5
20260902035015 65 296 1.0 4.0 0.00 0.00 0.00 67 1012.5
20260902034532 65 309 1.0 6.0 0.00 0.00 0.00 67 1012.5
20260902034012 65 268 1.0 6.0 0.00 0.00 0.00 67 1012.5
20260902033513 65 310 1.0 7.0 0.00 0.00 0.00 67 1012.5
20260902033024 65 310 3.0 7.0 0.00 0.00 0.00 67 1012.4
20260902032518 65 308 2.0 6.0 0.00 0.00 0.00 66 1012.3
20260902032015 65 6 2.0 7.0 0.00 0.00 0.00 66 1012.4
20260902031515 65 311 2.0 7.0 0.00 0.00 0.00 66 1012.4
20260902031003 65 301 2.0 7.0 0.00 0.00 0.00 66 1012.4
20260902030508 65 274 2.0 6.0 0.00 0.00 0.00 66 1012.4
20260902030011 66 344 1.0 7.0 0.00 0.00 0.00 66 1012.3
20260902025509 66 282 2.0 9.0 0.00 0.00 0.00 65 1012.3
20260902025010 66 319 2.0 9.0 0.00 0.00 0.00 65 1012.3
20260902024516 66 297 3.0 7.0 0.00 0.00 0.00 65 1012.2
20260902024012 66 289 2.0 7.0 0.00 0.00 0.00 65 1012.2
20260902023513 66 286 1.0 7.0 0.00 0.00 0.00 65 1012.2
20260902023024 66 316 3.0 9.0 0.00 0.00 0.00 64 1012.3
20260902022513 66 312 2.0 9.0 0.00 0.00 0.00 64 1012.2
20260902022013 67 292 3.0 6.0 0.00 0.00 0.00 64 1012.3
20260902021540 67 190 2.0 6.0 0.00 0.00 0.00 63 1012.1
20260902021016 67 292 3.0 6.0 0.00 0.00 0.00 63 1012.1
20260902020504 67 341 3.0 7.0 0.00 0.00 0.00 63 1012.1
20260902020010 67 347 2.0 7.0 0.00 0.00 0.00 63 1012.1
20260902015506 67 302 3.0 7.0 0.00 0.00 0.00 63 1012.2
20260902015008 68 307 2.0 8.0 0.00 0.00 0.00 62 1012.1
20260902014529 68 308 1.0 8.0 0.00 0.00 0.00 62 1012.1
20260902014008 68 44 2.0 8.0 0.00 0.00 0.00 62 1012.1
20260902013508 68 262 2.0 7.0 0.00 0.00 0.00 62 1012.0
20260902013018 68 321 3.0 6.0 0.00 0.00 0.00 61 1012.0
20260902012511 68 114 3.0 11.0 0.00 0.00 0.00 61 1011.9
20260902012016 68 344 2.0 11.0 0.00 0.00 0.00 60 1011.9
20260902011524 68 286 3.0 6.0 0.00 0.00 0.00 60 1011.9
20260902011016 68 226 2.0 7.0 0.00 0.00 0.00 60 1011.9
20260902010514 68 288 3.0 7.0 0.00 0.00 0.00 60 1011.9
20260902010030 69 310 3.0 7.0 0.00 0.00 0.00 60 1011.9
20260902005516 69 284 2.0 5.0 0.00 0.00 0.00 60 1011.8
20260902005015 69 270 3.0 5.0 0.00 0.00 0.00 59 1011.9
20260902004508 70 8 1.0 6.0 0.00 0.00 0.00 59 1011.8
20260902004007 70 295 3.0 13.0 0.00 0.00 0.00 59 1011.8
20260902003508 70 300 4.0 13.0 0.00 0.00 0.00 58 1011.6
20260902003014 71 295 3.0 8.0 0.00 0.00 0.00 56 1011.6
20260902002510 72 303 5.0 9.0 0.00 0.00 0.00 56 1011.6
20260902002012 72 274 3.0 9.0 0.00 0.00 0.00 56 1011.5
20260902001518 72 296 3.0 9.0 0.00 0.00 0.00 56 1011.6
20260902001012 71 91 4.0 9.0 0.00 0.00 0.00 56 1011.5
20260902000511 72 299 3.0 9.0 0.00 0.00 0.00 56 1011.6
20260902000035 72 319 4.0 8.0 0.00 0.00 0.00 56 1011.5
20260901235517 71 303 2.0 9.0 0.00 0.00 0.00 58 1011.6
20260901235012 70 67 4.0 10.0 0.00 0.00 0.00 58 1011.7
20260901234546 70 323 4.0 10.0 0.00 0.00 0.00 58 1011.8
20260901234014 70 309 3.0 6.0 0.00 0.00 0.00 59 1011.7
20260901233517 70 303 3.0 10.0 0.00 0.00 0.00 60 1011.7
20260901233031 70 28 2.0 10.0 0.00 0.00 0.00 60 1011.8
20260901232508 69 347 1.0 6.0 0.00 0.00 0.00 61 1011.9
20260901232010 69 307 3.0 8.0 0.00 0.00 0.00 60 1011.9
20260901231516 69 312 3.0 8.0 0.00 0.00 0.00 60 1011.9
20260901231009 70 290 3.0 6.0 0.00 0.00 0.00 60 1011.9
20260901230513 69 295 2.0 9.0 0.00 0.00 0.00 60 1012.0
20260901230025 69 305 3.0 10.0 0.00 0.00 0.00 60 1012.0
20260901225514 69 18 3.0 10.0 0.00 0.00 0.00 60 1012.1
20260901225014 69 257 4.0 8.0 0.00 0.00 0.00 59 1012.1
20260901224530 69 65 3.0 6.0 0.00 0.00 0.00 60 1012.2
20260901224016 69 328 3.0 6.0 0.00 0.00 0.00 60 1012.2
20260901223517 69 342 3.0 6.0 0.00 0.00 0.00 59 1012.2
20260901223028 70 297 3.0 6.0 0.00 0.00 0.00 60 1012.2
20260901222518 70 266 1.0 7.0 0.00 0.00 0.00 60 1012.2
20260901222016 70 308 2.0 8.0 0.00 0.00 0.00 60 1012.2
20260901221558 70 35 3.0 8.0 0.00 0.00 0.00 59 1012.1
20260901221020 70 322 2.0 7.0 0.00 0.00 0.00 60 1012.2
20260901220510 70 303 3.0 10.0 0.00 0.00 0.00 60 1012.1
20260901220016 69 359 4.0 10.0 0.00 0.00 0.00 61 1012.1
20260901215514 69 20 3.0 6.0 0.00 0.00 0.00 61 1012.2
20260901215015 68 343 3.0 7.0 0.00 0.00 0.00 61 1012.3
20260901214525 68 40 3.0 7.0 0.00 0.00 0.00 61 1012.2
20260901214013 68 10 3.0 6.0 0.00 0.00 0.00 61 1012.2
20260901213514 68 359 1.0 5.0 0.00 0.00 0.00 61 1012.3
20260901213026 68 26 2.0 5.0 0.00 0.00 0.00 61 1012.3
20260901212516 68 312 2.0 8.0 0.00 0.00 0.00 61 1012.3
20260901212019 68 266 1.0 8.0 0.00 0.00 0.00 62 1012.3
20260901211535 68 51 3.0 8.0 0.00 0.00 0.00 62 1012.3
20260901211017 68 328 2.0 8.0 0.00 0.00 0.00 61 1012.3
20260901210523 68 269 3.0 7.0 0.00 0.00 0.00 61 1012.4
20260901210033 68 306 1.0 6.0 0.00 0.00 0.00 62 1012.4
20260901205519 68 307 2.0 6.0 0.00 0.00 0.00 62 1012.4
20260901205017 68 283 3.0 6.0 0.00 0.00 0.00 61 1012.3
20260901204531 68 233 2.0 6.0 0.00 0.00 0.00 62 1012.4
20260901204014 68 7 2.0 6.0 0.00 0.00 0.00 63 1012.5
20260901203514 68 314 1.0 7.0 0.00 0.00 0.00 64 1012.5
20260901203044 67 191 4.0 7.0 0.00 0.00 0.00 65 1012.5
20260901202516 67 266 2.0 5.0 0.00 0.00 0.00 65 1012.5
20260901202019 67 1 2.0 5.0 0.00 0.00 0.00 66 1012.5
20260901201537 66 34 3.0 5.0 0.00 0.00 0.00 66 1012.5
20260901201014 66 283 1.0 4.0 0.00 0.00 0.00 68 1012.5
20260901200516 66 271 0.0 4.0 0.00 0.00 0.00 68 1012.6
20260901200032 66 271 1.0 4.0 0.00 0.00 0.00 68 1012.7
20260901195520 66 305 1.0 3.0 0.00 0.00 0.00 67 1012.6
20260901195018 67 253 1.0 4.0 0.00 0.00 0.00 67 1012.6
20260901194533 67 357 1.0 4.0 0.00 0.00 0.00 67 1012.6
20260901194023 67 198 1.0 4.0 0.00 0.00 0.00 67 1012.7
20260901193518 67 275 1.0 7.0 0.00 0.00 0.00 67 1012.7
20260901193036 66 314 3.0 7.0 0.00 0.00 0.00 67 1012.8
20260901192513 66 325 1.0 5.0 0.00 0.00 0.00 67 1012.8
20260901192021 66 226 3.0 5.0 0.00 0.00 0.00 68 1012.9
20260901191527 66 243 1.0 6.0 0.00 0.00 0.00 68 1013.0
20260901191017 66 286 3.0 6.0 0.00 0.00 0.00 68 1013.1
20260901190516 66 271 2.0 5.0 0.00 0.00 0.00 69 1013.1
20260901190035 66 321 2.0 4.0 0.00 0.00 0.00 69 1013.1
20260901185520 65 344 1.0 5.0 0.00 0.00 0.00 69 1013.1
20260901185019 65 220 2.0 8.0 0.00 0.00 0.00 71 1013.1
20260901184531 65 307 0.0 8.0 0.00 0.00 0.00 71 1013.2
20260901184020 65 328 1.0 5.0 0.00 0.00 0.00 72 1013.2
20260901183520 64 103 1.0 6.0 0.00 0.00 0.00 73 1013.2
20260901183036 64 307 3.0 6.0 0.00 0.00 0.00 73 1013.3
20260901182520 64 288 2.0 5.0 0.00 0.00 0.00 74 1013.3
20260901182024 64 310 1.0 5.0 0.00 0.00 0.00 74 1013.2
20260901181504 63 301 2.0 5.0 0.00 0.00 0.00 75 1013.2
20260901181003 63 258 1.0 5.0 0.00 0.00 0.00 76 1013.2
20260901180504 63 293 1.0 5.0 0.00 0.00 0.00 77 1013.2
20260901180006 62 248 1.0 5.0 0.00 0.00 0.00 78 1013.3
20260901175507 62 300 1.0 5.0 0.00 0.00 0.00 79 1013.4
20260901175007 62 297 1.0 5.0 0.00 0.00 0.00 80 1013.5
20260901174510 62 280 1.0 7.0 0.00 0.00 0.00 80 1013.5
20260901174008 61 327 1.0 7.0 0.00 0.00 0.00 81 1013.5
20260901173515 61 349 1.0 3.0 0.00 0.00 0.00 81 1013.4
20260901173016 61 298 1.0 3.0 0.00 0.00 0.00 82 1013.4
20260901172513 60 302 0.0 3.0 0.00 0.00 0.00 84 1013.4
20260901172013 60 236 1.0 4.0 0.00 0.00 0.00 85 1013.3
20260901171524 60 293 0.0 4.0 0.00 0.00 0.00 86 1013.3
20260901171012 59 300 2.0 4.0 0.00 0.00 0.00 86 1013.2
20260901170515 59 342 1.0 3.0 0.00 0.00 0.00 87 1013.2
20260901170028 59 305 1.0 4.0 0.00 0.00 0.00 87 1013.3
20260901165503 59 283 1.0 6.0 0.00 0.00 0.00 87 1013.2
20260901165004 59 296 2.0 49.0 0.00 0.00 0.00 87 1013.2
20260901164507 59 271 1.0 49.0 0.00 0.00 0.00 87 1013.2
20260901164004 59 285 4.0 26.0 0.00 0.00 0.00 85 1013.2
20260901163513 59 336 4.0 9.0 0.00 0.00 0.00 84 1013.2
20260901163010 60 301 3.0 9.0 0.00 0.00 0.00 83 1013.3
20260901162506 59 306 3.0 8.0 0.00 0.00 0.00 83 1013.2
20260901162009 60 300 2.0 6.0 0.00 0.00 0.00 83 1013.2
20260901161532 60 288 2.0 6.0 0.00 0.00 0.00 82 1013.2
20260901161012 59 277 0.0 6.0 0.00 0.00 0.00 83 1013.2
20260901160514 59 295 2.0 6.0 0.00 0.00 0.00 83 1013.1
20260901160035 59 330 2.0 6.0 0.00 0.00 0.00 83 1013.1
20260901155517 59 345 0.0 5.0 0.00 0.00 0.00 83 1013.2
20260901155018 59 32 1.0 4.0 0.00 0.00 0.00 82 1013.1
20260901154530 59 318 1.0 4.0 0.00 0.00 0.00 82 1013.1
20260901154016 59 290 2.0 6.0 0.00 0.00 0.00 82 1013.1
20260901153505 59 300 1.0 6.0 0.00 0.00 0.00 81 1013.2
20260901153007 60 278 1.0 6.0 0.00 0.00 0.00 81 1013.2
20260901152506 60 282 1.0 9.0 0.00 0.00 0.00 80 1013.2
20260901152008 60 281 3.0 9.0 0.00 0.00 0.00 80 1013.1
20260901151512 60 311 2.0 8.0 0.00 0.00 0.00 79 1013.0
20260901151010 60 294 4.0 8.0 0.00 0.00 0.00 79 1012.9
20260901150513 60 305 2.0 7.0 0.00 0.00 0.00 78 1012.9
20260901150022 60 289 2.0 8.0 0.00 0.00 0.00 78 1012.8
20260901145510 60 291 2.0 8.0 0.00 0.00 0.00 78 1012.8
20260901145011 60 319 2.0 8.0 0.00 0.00 0.00 77 1012.8
20260901144526 60 238 2.0 7.0 0.00 0.00 0.00 77 1012.7
20260901144013 60 307 2.0 7.0 0.00 0.00 0.00 77 1012.7
20260901143516 60 304 1.0 4.0 0.00 0.00 0.00 77 1012.7
20260901143032 60 310 0.0 7.0 0.00 0.00 0.00 77 1012.7
20260901142520 60 291 4.0 7.0 0.00 0.00 0.00 77 1012.7
20260901142016 60 278 1.0 3.0 0.00 0.00 0.00 77 1012.7
20260901141508 60 311 1.0 3.0 0.00 0.00 0.00 77 1012.7
20260901141009 60 295 0.0 3.0 0.00 0.00 0.00 77 1012.6
20260901140517 60 285 1.0 3.0 0.00 0.00 0.00 77 1012.6
20260901140015 60 308 1.0 5.0 0.00 0.00 0.00 77 1012.5
20260901135510 60 319 2.0 5.0 0.00 0.00 0.00 77 1012.5
20260901135010 60 295 2.0 4.0 0.00 0.00 0.00 78 1012.6
20260901134531 60 334 1.0 3.0 0.00 0.00 0.00 78 1012.5
20260901134012 60 281 2.0 3.0 0.00 0.00 0.00 78 1012.4
20260901133516 60 309 0.0 3.0 0.00 0.00 0.00 78 1012.5
20260901133030 60 201 0.0 3.0 0.00 0.00 0.00 78 1012.5
20260901132512 60 327 0.0 3.0 0.00 0.00 0.00 78 1012.5
20260901132014 60 308 0.0 4.0 0.00 0.00 0.00 78 1012.4
20260901131534 60 291 2.0 4.0 0.00 0.00 0.00 78 1012.4
20260901131017 60 272 1.0 3.0 0.00 0.00 0.00 78 1012.4
20260901130518 60 239 0.0 3.0 0.00 0.00 0.00 78 1012.4
20260901130033 60 301 0.0 3.0 0.00 0.00 0.00 79 1012.4
20260901125508 59 287 0.0 2.0 0.00 0.00 0.00 79 1012.4
20260901125007 59 296 1.0 2.0 0.00 0.00 0.00 79 1012.3
20260901124517 59 292 0.0 3.0 0.00 0.00 0.00 79 1012.3
20260901124012 59 209 1.0 3.0 0.00 0.00 0.00 79 1012.3
20260901123516 59 357 0.0 3.0 0.00 0.00 0.00 79 1012.3
20260901123023 59 345 0.0 4.0 0.00 0.00 0.00 79 1012.3
20260901122512 59 256 0.0 5.0 0.00 0.00 0.00 79 1012.4
20260901122014 59 251 1.0 5.0 0.00 0.00 0.00 79 1012.4
20260901121528 59 310 2.0 5.0 0.00 0.00 0.00 80 1012.4
20260901121014 59 317 1.0 4.0 0.00 0.00 0.00 80 1012.4
20260901120520 59 303 0.0 2.0 0.00 0.00 0.00 80 1012.4
20260901120031 59 299 0.0 2.0 0.00 0.00 0.00 80 1012.4
20260901115517 59 294 0.0 6.0 0.00 0.00 0.00 80 1012.4
20260901115023 59 200 0.0 6.0 0.00 0.00 0.00 80 1012.4
20260901114533 59 304 1.0 4.0 0.00 0.00 0.00 80 1012.4
20260901114019 58 197 1.0 6.0 0.00 0.00 0.00 80 1012.4
20260901113514 58 314 1.0 6.0 0.00 0.00 0.00 81 1012.4
20260901113019 58 233 0.0 5.0 0.00 0.00 0.00 81 1012.4
20260901112511 58 337 0.0 4.0 0.00 0.00 0.00 81 1012.3
20260901112015 58 288 2.0 6.0 0.00 0.00 0.00 81 1012.3
20260901111525 58 171 1.0 6.0 0.00 0.00 0.00 81 1012.2
20260901111012 58 251 0.0 4.0 0.00 0.00 0.00 80 1012.2
20260901110516 58 257 0.0 4.0 0.00 0.00 0.00 80 1012.2
20260901110028 58 233 1.0 4.0 0.00 0.00 0.00 80 1012.2
20260901105514 59 276 0.0 4.0 0.00 0.00 0.00 80 1012.2
20260901105017 59 48 1.0 6.0 0.00 0.00 0.00 80 1012.2
20260901104533 59 294 1.0 6.0 0.00 0.00 0.00 80 1012.2
20260901104018 59 239 0.0 2.0 0.00 0.00 0.00 80 1012.1
20260901103517 59 251 0.0 4.0 0.00 0.00 0.00 79 1012.1
20260901103033 59 305 1.0 7.0 0.00 0.00 0.00 79 1012.1
20260901102522 59 305 2.0 7.0 0.00 0.00 0.00 79 1012.1
20260901102018 59 306 1.0 6.0 0.00 0.00 0.00 78 1012.0
20260901101519 59 295 1.0 7.0 0.00 0.00 0.00 78 1012.0
20260901101013 59 299 1.0 7.0 0.00 0.00 0.00 78 1012.0
20260901100517 60 291 2.0 5.0 0.00 0.00 0.00 78 1012.0
20260901100024 60 176 0.0 5.0 0.00 0.00 0.00 78 1012.0
20260901095513 60 295 3.0 6.0 0.00 0.00 0.00 77 1012.0
20260901095017 60 319 2.0 8.0 0.00 0.00 0.00 77 1011.9
20260901094528 60 323 0.0 9.0 0.00 0.00 0.00 77 1012.0
20260901094016 60 296 4.0 9.0 0.00 0.00 0.00 77 1011.9
20260901093517 60 295 2.0 6.0 0.00 0.00 0.00 77 1011.8
20260901093032 60 314 1.0 5.0 0.00 0.00 0.00 77 1011.7
20260901092519 60 284 3.0 5.0 0.00 0.00 0.00 77 1011.7
20260901092017 60 300 2.0 6.0 0.00 0.00 0.00 77 1011.6
20260901091503 60 291 1.0 6.0 0.00 0.00 0.00 77 1011.4
20260901091005 60 297 0.0 2.0 0.00 0.00 0.00 77 1011.4
20260901090503 60 284 0.0 3.0 0.00 0.00 0.00 76 1011.4